Погода в Ржевке

Россия / Белгородская область     50°03′27″N   39°04′05″E
темп.,
°C
ветер,
м/с
пор.,
м/с
влажн.,
%
обл.,
%
осадки,
мм/ч
давл.,
гПа
погр.,
м
13 мая, чт
чт1300:00+8в358884 0.0 1016103
03:00+9в0192100 0.7 101617
06:00+10вюв3994100 0.8 1015300
09:00+14ююв587868 1.4 1015647
12:00+18ю5767100 0.3 10141289
15:00+18юз356892 0.6 1014681
18:00+20ююз1467100 0.3 1014537
21:00+15юв2279100 0.4 101518
14 мая, пт
пт1400:00+14юв238776 0.0 101532
03:00+13вюв3591100 0.0 101568
06:00+14в398987 0.0 1014190
09:00+20юв61168100 0.0 1014621
12:00+23юв6956100 0.0 1013985
15:00+24всв5554100 0.0 1011886
18:00+23вюв5106692 0.0 1011360
21:00+18юв4118533 0.0 1011189
15 мая, сб
сб1500:00+17ю3109176 0.0 1011166
03:00+15ююз2391100 0.0 101128
06:00+15юз248840 0.7 1013104
09:00+19зюз2269100 0.7 1013303
12:00+23юз345199 0.0 10141186
15:00+24юз3446100 0.0 10141597
18:00+23ююз2359100 0.0 1014331
21:00+18зсз0070100 0.0 101411
16 мая, вс
вс1600:00+16ссв2276100 0.0 101418
03:00+15св34812 0.0 101545
06:00+15св37845 0.0 1014151
09:00+21всв576732 0.0 1014505
12:00+25св555917 0.0 10131173
15:00+26вюв4543100 0.0 10121443
18:00+24вюв365819 0.0 1011228
21:00+19всв3566100 0.0 101152
17 мая, пн
пн1700:00+17всв41167100 0.0 1010174
03:00+16в497159 0.0 1010142
06:00+15вюв3126819 0.0 1010216
09:00+22вюв613496 0.0 1010537
12:00+26вюв813423 0.0 10091356
15:00+27вюв813455 0.0 10081891
18:00+25юв511544 0.0 1008409
21:00+19вюв35690 0.0 100869